Location: Chittendens Corners
(41.2320°N, 81.4940°W)
Time: 17:00:25
(UTC+00:00)

Cosmos 1340 - Pass Details

Date: 29 October 2020
Orbit: 501 x 504 km, 81.2° (Epoch: 28 November)

Event Time Altitude Azimuth Distance (km) Brightness Sun altitude
Rises 23:41:16 0° 345° (NNW) 2,614 6.4 -15.0°
Reaches altitude 10° 23:43:26 10° 340° (NNW) 1,725 5.5 -15.4°
Maximum altitude 23:47:07 52° 264° (W) 633 3.5 -16.1°
Drops below altitude 10° 23:50:46 10° 187° (S) 1,711 5.5 -16.7°
Sets 23:52:55 0° 183° (S) 2,590 6.3 -17.2°
